FDX1721 KIND-KEWR

Flight info

Callsign FDX1721
Flight time 1h 20m
Altitude 35000
Route MAREO5 BDOCK DJB DORET J584 SLT FQM3
Aircraft MD11/H-SDE1E2E3FGHIJ2J3J4J5M1RWXY/LB1D1

Departure

Time 2026-04-24 19:36
Airport Indianapolis International Airport (KIND)

Arrival

Time 2026-04-24 20:57
Airport Newark Liberty International Airport (KEWR)
Time Latitude Longitude Altitude Speed Heading
2026-04-24 18:57 39.71080 -86.28517 796 ft 0 kts 134°
2026-04-24 19:20 39.71081 -86.28518 786 ft 2 kts 135°
2026-04-24 19:21 39.71100 -86.28538 811 ft 4 kts 139°
2026-04-24 19:21 39.71115 -86.28557 787 ft 4 kts 117°
2026-04-24 19:21 39.71121 -86.28577 794 ft 4 kts 63°
2026-04-24 19:21 39.71106 -86.28602 791 ft 3 kts 45°
2026-04-24 19:22 39.71094 -86.28617 794 ft 4 kts 45°
2026-04-24 19:22 39.71087 -86.28626 794 ft 0 kts 45°
2026-04-24 19:29 39.71092 -86.28620 794 ft 3 kts 44°
2026-04-24 19:29 39.71114 -86.28614 794 ft 4 kts 354°
2026-04-24 19:29 39.71149 -86.28647 794 ft 7 kts 318°
2026-04-24 19:30 39.71176 -86.28679 794 ft 3 kts 317°
2026-04-24 19:30 39.71194 -86.28698 794 ft 3 kts 324°
2026-04-24 19:30 39.71228 -86.28698 794 ft 7 kts 18°
2026-04-24 19:30 39.71272 -86.28652 795 ft 8 kts 44°
2026-04-24 19:31 39.71311 -86.28603 794 ft 8 kts 44°
2026-04-24 19:31 39.71350 -86.28552 793 ft 9 kts 44°
2026-04-24 19:31 39.71395 -86.28496 791 ft 9 kts 44°
2026-04-24 19:31 39.71438 -86.28441 791 ft 8 kts 44°
2026-04-24 19:32 39.71478 -86.28390 791 ft 9 kts 44°
2026-04-24 19:32 39.71533 -86.28320 790 ft 13 kts 44°
2026-04-24 19:32 39.71589 -86.28235 789 ft 11 kts 59°
2026-04-24 19:32 39.71617 -86.28156 791 ft 9 kts 67°
2026-04-24 19:33 39.71645 -86.28083 792 ft 10 kts 57°
2026-04-24 19:33 39.71697 -86.28010 792 ft 12 kts 44°
2026-04-24 19:33 39.71748 -86.27946 792 ft 8 kts 44°
2026-04-24 19:33 39.71778 -86.27908 793 ft 5 kts 44°
2026-04-24 19:34 39.71804 -86.27876 794 ft 6 kts 44°
2026-04-24 19:34 39.71833 -86.27840 795 ft 6 kts 41°
2026-04-24 19:34 39.71871 -86.27843 795 ft 8 kts 336°
2026-04-24 19:34 39.71922 -86.27905 794 ft 11 kts 310°
2026-04-24 19:35 39.71954 -86.27963 793 ft 3 kts 287°
2026-04-24 19:35 39.71944 -86.27993 792 ft 6 kts 236°
2026-04-24 19:35 39.71898 -86.28054 791 ft 15 kts 225°
2026-04-24 19:35 39.71729 -86.28272 790 ft 68 kts 225°
2026-04-24 19:36 39.71197 -86.28948 795 ft 142 kts 224°
2026-04-24 19:36 39.70361 -86.29996 986 ft 180 kts 226°
2026-04-24 19:36 39.69469 -86.31097 1938 ft 170 kts 222°
2026-04-24 19:36 39.68635 -86.32159 2924 ft 170 kts 223°
2026-04-24 19:37 39.67766 -86.33247 3747 ft 175 kts 223°
2026-04-24 19:37 39.66805 -86.34210 4540 ft 179 kts 206°
2026-04-24 19:37 39.65498 -86.34479 4827 ft 212 kts 176°
2026-04-24 19:37 39.64032 -86.33661 5079 ft 252 kts 147°
2026-04-24 19:38 39.62950 -86.31773 5889 ft 274 kts 119°
2026-04-24 19:38 39.62603 -86.29262 6772 ft 294 kts 92°
2026-04-24 19:38 39.63119 -86.26642 7641 ft 308 kts 67°
2026-04-24 19:38 39.64063 -86.24121 8422 ft 312 kts 73°
2026-04-24 19:39 39.64740 -86.21448 9335 ft 314 kts 78°
2026-04-24 19:39 39.65341 -86.18710 10157 ft 318 kts 78°
2026-04-24 19:39 39.65973 -86.15818 10334 ft 349 kts 77°
2026-04-24 19:39 39.66689 -86.12668 10476 ft 379 kts 76°
2026-04-24 19:40 39.67476 -86.09356 11155 ft 388 kts 75°
2026-04-24 19:40 39.68295 -86.06002 11987 ft 393 kts 75°
2026-04-24 19:40 39.69130 -86.02627 12798 ft 398 kts 74°
2026-04-24 19:40 39.69987 -85.99184 13553 ft 403 kts 74°
2026-04-24 19:41 39.70853 -85.95705 14231 ft 408 kts 74°
2026-04-24 19:41 39.71718 -85.92231 14891 ft 411 kts 74°
2026-04-24 19:41 39.72601 -85.88678 15540 ft 416 kts 74°
2026-04-24 19:41 39.73492 -85.85089 16197 ft 420 kts 74°
2026-04-24 19:42 39.74392 -85.81457 16822 ft 424 kts 74°
2026-04-24 19:42 39.75297 -85.77796 17459 ft 428 kts 74°
2026-04-24 19:42 39.76210 -85.74097 18056 ft 432 kts 73°
2026-04-24 19:42 39.77129 -85.70368 18595 ft 435 kts 73°
2026-04-24 19:43 39.78054 -85.66607 19103 ft 438 kts 73°
2026-04-24 19:43 39.78669 -85.64104 19430 ft 440 kts 73°
2026-04-24 19:43 39.79920 -85.59004 20097 ft 445 kts 73°
2026-04-24 19:43 39.80862 -85.55158 20609 ft 448 kts 73°
2026-04-24 19:44 39.81488 -85.52598 20951 ft 450 kts 73°
2026-04-24 19:44 39.82438 -85.48707 21465 ft 453 kts 73°
2026-04-24 19:44 39.83394 -85.44787 21985 ft 456 kts 73°
2026-04-24 19:44 39.84356 -85.40835 22530 ft 459 kts 73°
2026-04-24 19:45 39.85323 -85.36855 23084 ft 462 kts 73°
2026-04-24 19:45 39.86292 -85.32857 23576 ft 466 kts 73°
2026-04-24 19:45 39.87268 -85.28826 24056 ft 468 kts 73°
2026-04-24 19:45 39.88177 -85.24735 24457 ft 472 kts 78°
2026-04-24 19:46 39.88703 -85.20525 25020 ft 472 kts 84°
2026-04-24 19:46 39.88993 -85.16257 25442 ft 476 kts 87°
2026-04-24 19:46 39.89182 -85.11949 25998 ft 477 kts 88°
2026-04-24 19:46 39.89555 -85.07635 26347 ft 483 kts 77°
2026-04-24 19:47 39.90624 -85.03513 26879 ft 484 kts 64°
2026-04-24 19:47 39.92358 -84.99755 27343 ft 484 kts 51°
2026-04-24 19:47 39.94522 -84.96405 27750 ft 486 kts 47°
2026-04-24 19:47 39.96611 -84.92896 28050 ft 493 kts 56°
2026-04-24 19:48 39.98180 -84.88915 28629 ft 495 kts 68°
2026-04-24 19:48 39.99118 -84.84583 28987 ft 500 kts 80°
2026-04-24 19:48 40.00064 -84.75537 29818 ft 507 kts 80°
2026-04-24 19:49 40.01647 -84.66551 30490 ft 511 kts 73°
2026-04-24 19:49 40.03802 -84.57796 31487 ft 504 kts 70°
2026-04-24 19:50 40.07187 -84.44885 32582 ft 503 kts 70°
2026-04-24 19:50 40.08306 -84.40552 32914 ft 503 kts 70°
2026-04-24 19:51 40.10514 -84.31898 33627 ft 502 kts 70°
2026-04-24 19:51 40.11612 -84.27567 33963 ft 501 kts 69°
2026-04-24 19:52 40.13788 -84.18955 34684 ft 496 kts 69°
2026-04-24 19:52 40.14869 -84.14673 34932 ft 497 kts 69°
2026-04-24 19:52 40.17039 -84.06055 35004 ft 500 kts 69°
2026-04-24 19:53 40.19208 -83.97412 35011 ft 500 kts 70°
2026-04-24 19:54 40.22403 -83.84434 35022 ft 498 kts 69°
2026-04-24 19:54 40.24534 -83.75805 35018 ft 498 kts 69°
2026-04-24 19:55 40.26309 -83.68635 35015 ft 498 kts 69°
2026-04-24 19:55 40.28802 -83.58543 35013 ft 498 kts 69°
2026-04-24 19:56 40.30919 -83.49934 35011 ft 499 kts 69°
2026-04-24 19:56 40.33022 -83.41350 35009 ft 498 kts 69°
2026-04-24 19:57 40.35133 -83.32703 35010 ft 498 kts 69°
2026-04-24 19:57 40.37239 -83.24041 35011 ft 498 kts 69°
2026-04-24 19:58 40.39338 -83.15381 35016 ft 498 kts 70°
2026-04-24 19:58 40.41428 -83.06720 35013 ft 497 kts 70°
2026-04-24 19:59 40.43509 -82.98065 35009 ft 497 kts 70°
2026-04-24 19:59 40.45575 -82.89397 35020 ft 498 kts 70°
2026-04-24 20:00 40.47614 -82.80713 35019 ft 498 kts 70°
2026-04-24 20:00 40.49660 -82.72048 35019 ft 495 kts 70°
2026-04-24 20:01 40.51686 -82.63488 35012 ft 494 kts 70°
2026-04-24 20:01 40.53723 -82.54865 35021 ft 494 kts 70°
2026-04-24 20:02 40.55424 -82.47637 35018 ft 494 kts 70°
2026-04-24 20:02 40.57775 -82.37603 35028 ft 493 kts 70°
2026-04-24 20:03 40.59786 -82.28984 35020 ft 493 kts 70°
2026-04-24 20:03 40.61791 -82.20362 35021 ft 493 kts 70°
2026-04-24 20:04 40.63789 -82.11734 35029 ft 493 kts 70°
2026-04-24 20:04 40.65784 -82.03089 35024 ft 494 kts 70°
2026-04-24 20:05 40.67773 -81.94429 35031 ft 494 kts 70°
2026-04-24 20:05 40.69751 -81.85756 35024 ft 494 kts 71°
2026-04-24 20:06 40.71686 -81.77121 35021 ft 494 kts 71°
2026-04-24 20:06 40.73641 -81.68440 35026 ft 494 kts 71°
2026-04-24 20:07 40.75287 -81.61158 35028 ft 494 kts 70°
2026-04-24 20:07 40.77563 -81.51069 35030 ft 494 kts 70°
2026-04-24 20:08 40.79512 -81.42389 35034 ft 494 kts 70°
2026-04-24 20:08 40.81457 -81.33694 35036 ft 494 kts 70°
2026-04-24 20:09 40.83393 -81.24999 35028 ft 493 kts 70°
2026-04-24 20:09 40.85322 -81.16305 35029 ft 493 kts 70°
2026-04-24 20:10 40.87242 -81.07614 35029 ft 493 kts 70°
2026-04-24 20:10 40.89150 -80.98948 35046 ft 493 kts 70°
2026-04-24 20:11 40.91055 -80.90254 35056 ft 493 kts 70°
2026-04-24 20:11 40.92952 -80.81548 35039 ft 492 kts 70°
2026-04-24 20:12 40.94812 -80.72832 35039 ft 492 kts 70°
2026-04-24 20:12 40.96679 -80.64121 35037 ft 492 kts 70°
2026-04-24 20:13 40.98554 -80.55416 35035 ft 492 kts 70°
2026-04-24 20:13 41.00425 -80.46707 35033 ft 491 kts 70°
2026-04-24 20:14 41.02276 -80.38060 35028 ft 491 kts 70°
2026-04-24 20:14 41.04143 -80.29299 35031 ft 491 kts 70°
2026-04-24 20:15 41.05992 -80.20586 35034 ft 491 kts 70°
2026-04-24 20:15 41.07833 -80.11870 35035 ft 491 kts 70°
2026-04-24 20:16 41.09654 -80.03218 35025 ft 490 kts 70°
2026-04-24 20:16 41.11492 -79.94449 35019 ft 490 kts 70°
2026-04-24 20:17 41.13299 -79.85793 35014 ft 491 kts 70°
2026-04-24 20:17 41.16008 -79.72677 35008 ft 492 kts 70°
2026-04-24 20:18 41.17787 -79.63898 35001 ft 493 kts 69°
2026-04-24 20:18 41.19579 -79.55123 34993 ft 493 kts 69°
2026-04-24 20:19 41.21375 -79.46343 34994 ft 493 kts 69°
2026-04-24 20:19 41.23168 -79.37556 34991 ft 493 kts 69°
2026-04-24 20:20 41.24954 -79.28762 34993 ft 493 kts 69°
2026-04-24 20:20 41.26734 -79.19959 35008 ft 493 kts 69°
2026-04-24 20:21 41.28510 -79.11135 35010 ft 494 kts 69°
2026-04-24 20:21 41.30267 -79.02367 35026 ft 495 kts 69°
2026-04-24 20:22 41.32033 -78.93516 35024 ft 495 kts 69°
2026-04-24 20:22 41.33792 -78.84657 35022 ft 495 kts 69°
2026-04-24 20:23 41.35541 -78.75812 35022 ft 494 kts 69°
2026-04-24 20:23 41.37273 -78.66969 35055 ft 494 kts 70°
2026-04-24 20:24 41.38973 -78.58108 35023 ft 493 kts 70°
2026-04-24 20:24 41.40684 -78.49264 35021 ft 493 kts 69°
2026-04-24 20:25 41.42400 -78.40426 35032 ft 493 kts 69°
2026-04-24 20:25 41.44105 -78.31615 35041 ft 493 kts 69°
2026-04-24 20:26 41.45797 -78.22831 35054 ft 493 kts 69°
2026-04-24 20:26 41.47494 -78.13977 35054 ft 493 kts 69°
2026-04-24 20:27 41.49184 -78.05118 35063 ft 492 kts 69°
2026-04-24 20:27 41.50651 -77.96167 35071 ft 500 kts 78°
2026-04-24 20:28 41.50345 -77.86805 35074 ft 513 kts 96°
2026-04-24 20:28 41.48780 -77.77466 35074 ft 517 kts 98°
2026-04-24 20:29 41.47217 -77.68133 35066 ft 516 kts 97°
2026-04-24 20:29 41.45832 -77.58782 35102 ft 515 kts 95°
2026-04-24 20:30 41.44504 -77.49376 35074 ft 518 kts 95°
2026-04-24 20:30 41.43163 -77.39951 35070 ft 518 kts 95°
2026-04-24 20:31 41.41808 -77.30538 35071 ft 517 kts 96°
2026-04-24 20:31 41.40443 -77.21139 35090 ft 518 kts 95°
2026-04-24 20:32 41.39077 -77.11776 34763 ft 517 kts 95°
2026-04-24 20:32 41.38386 -77.07068 34275 ft 518 kts 95°
2026-04-24 20:32 41.37683 -77.02288 33566 ft 518 kts 95°
2026-04-24 20:33 41.36997 -76.97649 32898 ft 518 kts 95°
2026-04-24 20:33 41.36301 -76.92949 32248 ft 518 kts 95°
2026-04-24 20:33 41.35603 -76.88243 31607 ft 519 kts 95°
2026-04-24 20:33 41.34899 -76.83533 30994 ft 521 kts 95°
2026-04-24 20:34 41.34119 -76.78813 30347 ft 525 kts 99°
2026-04-24 20:34 41.33092 -76.74141 29578 ft 528 kts 103°
2026-04-24 20:34 41.31899 -76.69532 28784 ft 524 kts 105°
2026-04-24 20:34 41.30648 -76.65009 28046 ft 518 kts 106°
2026-04-24 20:35 41.29401 -76.60553 27324 ft 511 kts 106°
2026-04-24 20:35 41.28183 -76.56156 26642 ft 505 kts 106°
2026-04-24 20:35 41.26994 -76.51798 25954 ft 499 kts 106°
2026-04-24 20:35 41.25828 -76.47476 25277 ft 494 kts 106°
2026-04-24 20:36 41.24680 -76.43192 24613 ft 490 kts 106°
2026-04-24 20:36 41.23546 -76.38956 23941 ft 484 kts 107°
2026-04-24 20:36 41.22799 -76.36170 23514 ft 481 kts 107°
2026-04-24 20:36 41.21311 -76.30628 22514 ft 473 kts 107°
2026-04-24 20:37 41.20576 -76.27900 22066 ft 470 kts 107°
2026-04-24 20:37 41.19481 -76.23841 21413 ft 465 kts 107°
2026-04-24 20:37 41.18391 -76.19832 20770 ft 461 kts 107°
2026-04-24 20:37 41.17304 -76.15869 20542 ft 457 kts 108°
2026-04-24 20:38 41.16219 -76.11909 20377 ft 457 kts 107°
2026-04-24 20:38 41.15133 -76.07941 20196 ft 457 kts 107°
2026-04-24 20:38 41.14045 -76.03973 19727 ft 456 kts 107°
2026-04-24 20:38 41.12968 -76.00049 19561 ft 451 kts 107°
2026-04-24 20:39 41.11898 -75.96135 19561 ft 451 kts 107°
2026-04-24 20:39 41.10829 -75.92228 19527 ft 451 kts 108°
2026-04-24 20:39 41.09758 -75.88326 19528 ft 451 kts 108°
2026-04-24 20:39 41.08684 -75.84423 19530 ft 451 kts 108°
2026-04-24 20:40 41.07620 -75.80572 19527 ft 451 kts 108°
2026-04-24 20:40 41.06526 -75.76619 19548 ft 452 kts 108°
2026-04-24 20:40 41.05441 -75.72703 19545 ft 454 kts 108°
2026-04-24 20:40 41.04358 -75.68803 19549 ft 454 kts 108°
2026-04-24 20:41 41.03269 -75.64886 19544 ft 454 kts 108°
2026-04-24 20:41 41.02176 -75.60965 19544 ft 454 kts 108°
2026-04-24 20:41 41.01094 -75.57097 19450 ft 454 kts 108°
2026-04-24 20:41 40.99998 -75.53194 19271 ft 453 kts 108°
2026-04-24 20:42 40.98900 -75.49287 19092 ft 451 kts 108°
2026-04-24 20:42 40.97808 -75.45396 18917 ft 450 kts 108°
2026-04-24 20:42 40.96721 -75.41521 18761 ft 450 kts 108°
2026-04-24 20:42 40.95631 -75.37632 18582 ft 451 kts 108°
2026-04-24 20:43 40.94540 -75.33745 18400 ft 451 kts 108°
2026-04-24 20:43 40.93450 -75.29865 18234 ft 449 kts 108°
2026-04-24 20:43 40.92361 -75.25996 18036 ft 448 kts 108°
2026-04-24 20:43 40.91273 -75.22140 17838 ft 447 kts 108°
2026-04-24 20:44 40.90189 -75.18301 17627 ft 446 kts 108°
2026-04-24 20:44 40.89105 -75.14467 17423 ft 444 kts 108°
2026-04-24 20:44 40.88022 -75.10648 17217 ft 443 kts 108°
2026-04-24 20:44 40.86940 -75.06841 17022 ft 442 kts 108°
2026-04-24 20:45 40.85859 -75.03030 16654 ft 443 kts 107°
2026-04-24 20:45 40.84781 -74.99227 16237 ft 441 kts 108°
2026-04-24 20:45 40.83711 -74.95451 15824 ft 438 kts 107°
2026-04-24 20:45 40.82652 -74.91692 15316 ft 435 kts 107°
2026-04-24 20:46 40.81609 -74.87953 14731 ft 432 kts 107°
2026-04-24 20:46 40.80582 -74.84245 14138 ft 429 kts 107°
2026-04-24 20:46 40.79559 -74.80572 13538 ft 423 kts 109°
2026-04-24 20:46 40.78147 -74.77182 12826 ft 423 kts 126°
2026-04-24 20:47 40.76106 -74.74417 12072 ft 419 kts 140°
2026-04-24 20:47 40.73824 -74.72055 11408 ft 414 kts 144°
2026-04-24 20:47 40.71516 -74.69825 10751 ft 409 kts 145°
2026-04-24 20:47 40.69223 -74.67654 10324 ft 403 kts 146°
2026-04-24 20:48 40.66983 -74.65527 10214 ft 386 kts 142°
2026-04-24 20:48 40.65059 -74.63198 10191 ft 367 kts 133°
2026-04-24 20:48 40.63389 -74.60772 10184 ft 348 kts 130°
2026-04-24 20:48 40.61833 -74.58442 10183 ft 333 kts 131°
2026-04-24 20:49 40.60292 -74.56181 10198 ft 331 kts 131°
2026-04-24 20:49 40.58758 -74.53987 10216 ft 331 kts 133°
2026-04-24 20:49 40.57186 -74.51784 10053 ft 328 kts 133°
2026-04-24 20:49 40.55622 -74.49622 9328 ft 326 kts 133°
2026-04-24 20:50 40.54039 -74.47531 8659 ft 319 kts 141°
2026-04-24 20:50 40.52135 -74.46155 8027 ft 308 kts 167°
2026-04-24 20:50 40.50076 -74.45572 7352 ft 300 kts 166°
2026-04-24 20:50 40.48247 -74.44325 6363 ft 297 kts 140°
2026-04-24 20:51 40.47035 -74.42220 5520 ft 286 kts 111°
2026-04-24 20:51 40.46678 -74.39699 4886 ft 278 kts 85°
2026-04-24 20:51 40.47183 -74.37329 4362 ft 266 kts 62°
2026-04-24 20:51 40.48084 -74.35203 4014 ft 268 kts 57°
2026-04-24 20:52 40.49032 -74.33139 3640 ft 258 kts 56°
2026-04-24 20:52 40.49932 -74.31165 3246 ft 246 kts 57°
2026-04-24 20:52 40.50780 -74.29296 3071 ft 228 kts 55°
2026-04-24 20:52 40.51814 -74.27886 2947 ft 209 kts 30°
2026-04-24 20:53 40.53038 -74.26938 2887 ft 202 kts 26°
2026-04-24 20:53 40.54250 -74.26047 2878 ft 197 kts 26°
2026-04-24 20:53 40.55453 -74.25229 2682 ft 191 kts 23°
2026-04-24 20:53 40.56641 -74.24484 2471 ft 187 kts 22°
2026-04-24 20:54 40.57819 -74.23742 2211 ft 187 kts 24°
2026-04-24 20:54 40.58974 -74.23012 1967 ft 186 kts 25°
2026-04-24 20:54 40.60116 -74.22289 1701 ft 173 kts 26°
2026-04-24 20:54 40.61172 -74.21619 1476 ft 167 kts 26°
2026-04-24 20:55 40.62215 -74.20956 1269 ft 166 kts 27°
2026-04-24 20:55 40.63250 -74.20298 1067 ft 165 kts 28°
2026-04-24 20:55 40.64284 -74.19642 826 ft 166 kts 29°
2026-04-24 20:55 40.65327 -74.18999 622 ft 167 kts 30°
2026-04-24 20:56 40.66372 -74.18344 395 ft 166 kts 33°
2026-04-24 20:56 40.67408 -74.17650 172 ft 168 kts 29°
2026-04-24 20:56 40.68449 -74.16985 32 ft 158 kts 26°
2026-04-24 20:56 40.69258 -74.16470 31 ft 96 kts 25°
2026-04-24 20:57 40.69696 -74.16192 28 ft 48 kts 25°
2026-04-24 20:57 40.69936 -74.16042 30 ft 27 kts 24°
2026-04-24 20:57 40.70111 -74.15929 31 ft 28 kts 26°
2026-04-24 20:57 40.70218 -74.15882 31 ft 13 kts 345°
2026-04-24 20:58 40.70257 -74.16030 29 ft 22 kts 275°
2026-04-24 20:58 40.70270 -74.16224 29 ft 21 kts 275°
2026-04-24 20:58 40.70280 -74.16386 29 ft 11 kts 274°
2026-04-24 20:58 40.70240 -74.16457 29 ft 13 kts 196°
2026-04-24 20:59 40.70130 -74.16474 28 ft 16 kts 187°
2026-04-24 20:59 40.70030 -74.16522 28 ft 14 kts 205°
2026-04-24 20:59 40.69945 -74.16575 28 ft 13 kts 206°
2026-04-24 20:59 40.69865 -74.16627 29 ft 15 kts 206°
2026-04-24 21:00 40.69769 -74.16688 29 ft 15 kts 205°
2026-04-24 21:00 40.69673 -74.16748 29 ft 17 kts 205°
2026-04-24 21:00 40.69556 -74.16822 30 ft 19 kts 206°
2026-04-24 21:00 40.69446 -74.16893 30 ft 17 kts 206°
2026-04-24 21:01 40.69346 -74.16957 30 ft 15 kts 206°
2026-04-24 21:01 40.69249 -74.17018 29 ft 18 kts 206°
2026-04-24 21:01 40.69139 -74.17088 29 ft 17 kts 205°
2026-04-24 21:01 40.69035 -74.17153 29 ft 16 kts 205°
2026-04-24 21:02 40.68939 -74.17215 29 ft 14 kts 207°
2026-04-24 21:02 40.68856 -74.17269 30 ft 12 kts 206°
2026-04-24 21:02 40.68777 -74.17319 30 ft 14 kts 206°
2026-04-24 21:02 40.68695 -74.17372 31 ft 12 kts 206°
2026-04-24 21:03 40.68623 -74.17417 31 ft 11 kts 206°
2026-04-24 21:03 40.68546 -74.17466 30 ft 13 kts 205°
2026-04-24 21:03 40.68466 -74.17516 30 ft 12 kts 205°
2026-04-24 21:03 40.68395 -74.17561 30 ft 11 kts 206°
2026-04-24 21:04 40.68326 -74.17605 30 ft 13 kts 206°
2026-04-24 21:04 40.68237 -74.17663 28 ft 14 kts 206°
2026-04-24 21:04 40.68156 -74.17715 29 ft 12 kts 205°
2026-04-24 21:04 40.68083 -74.17759 29 ft 11 kts 205°
2026-04-24 21:05 40.68020 -74.17800 29 ft 10 kts 206°
2026-04-24 21:05 40.67965 -74.17836 30 ft 8 kts 206°
2026-04-24 21:05 40.67921 -74.17864 30 ft 6 kts 206°
2026-04-24 21:05 40.67863 -74.17900 30 ft 10 kts 206°
2026-04-24 21:06 40.67828 -74.17948 30 ft 5 kts 258°
2026-04-24 21:06 40.67845 -74.18006 30 ft 7 kts 297°
2026-04-24 21:06 40.67866 -74.18059 30 ft 5 kts 297°
2026-04-24 21:06 40.67882 -74.18100 30 ft 5 kts 297°
2026-04-24 21:07 40.67897 -74.18131 30 ft 4 kts 308°
2026-04-24 21:07 40.67920 -74.18159 30 ft 5 kts 313°
2026-04-24 21:07 40.67936 -74.18199 29 ft 4 kts 295°
2026-04-24 21:07 40.67943 -74.18218 30 ft 2 kts 296°
2026-04-24 21:08 40.67947 -74.18230 30 ft 1 kts 296°
2026-04-24 21:08 40.67950 -74.18238 30 ft 0 kts 295°